Location: Red Rock Canyon
(36.1333°N, 115.4333°W)
Time: 18:10:04
(UTC-07:00)

ISS - Visible Passes

Search period start: 31 October 2014 00:00
Search period end: 09 November 2014 23:00
Orbit: 412 x 417 km, 51.6° (Epoch: 31 October)

Date Brightness Start Highest point End Pass type
(mag) Time Alt. Az. Time Alt. Az. Time Alt. Az.
05 Nov 0.1 05:42:08 10° SSE 05:43:49 13° SE 05:45:31 10° E visible
07 Nov -1.8 05:38:21 10° SSW 05:41:28 41° SE 05:44:37 10° ENE visible
08 Nov -0.7 04:49:36 10° S 04:52:10 21° SE 04:54:45 10° E visible
09 Nov -0.1 04:01:54 10° SE 04:02:53 11° SE 04:03:53 10° ESE visible
09 Nov -3.2 05:35:53 10° WSW 05:39:09 59° NW 05:42:26 10° NE visible
